Tracking 29892 objects as of 21-Nov-2024
HD Live streaming from Space Station
objects crossing your sky now

OBJECT D

Track OBJECT D now!
10-day predictions


NORAD ID: 52156
Int'l Code: 2022-032D
Perigee: 561.0 km
Apogee: 571.7 km
Inclination: 97.7 °
Period: 95.8 minutes
Semi major axis: 6937 km
RCS: Unknown
Launch date: March 30, 2022
Source: People's Republic of China (PRC)
Launch site: Jiuquan Satellite Launch Center, China (JSC)
Your satellite tracking list
Your tracking list is empty




NASA's NSSDC Master Catalog

Two Line Element Set (TLE):
1 52156U 22032D   24326.14700296  .00009272  00000-0  70221-3 0  9999
2 52156  97.6643  12.7135 0007678 315.0232  45.0371 15.02486604144521
Source of the keplerian elements: AFSPC